TimeMDT,TemperatureF,Dew PointF,Humidity,Sea Level PressureIn,VisibilityMPH,Wind Direction,Wind SpeedMPH,Gust SpeedMPH,PrecipitationIn,Events,Conditions,WindDirDegrees,DateUTC
12:53 AM,41.0,32.0,70,30.03,10.0,NW,4.6,-,N/A,,Clear,310,2013-05-31 06:53:00
1:53 AM,39.0,30.9,73,30.04,10.0,NW,5.8,-,N/A,,Clear,310,2013-05-31 07:53:00
2:53 AM,39.9,32.0,73,30.05,10.0,North,3.5,-,N/A,,Mostly Cloudy,360,2013-05-31 08:53:00
3:53 AM,39.9,28.9,65,30.05,10.0,NW,8.1,-,N/A,,Overcast,310,2013-05-31 09:53:00
4:53 AM,39.9,28.0,63,30.06,10.0,NW,9.2,-,N/A,,Overcast,310,2013-05-31 10:53:00
5:53 AM,39.9,28.0,63,30.08,10.0,WNW,8.1,-,N/A,,Overcast,300,2013-05-31 11:53:00
6:53 AM,41.0,28.0,60,30.10,10.0,NNW,12.7,-,N/A,,Overcast,330,2013-05-31 12:53:00
7:53 AM,42.1,28.0,58,30.11,10.0,NNW,12.7,-,N/A,,Overcast,330,2013-05-31 13:53:00
8:53 AM,43.0,28.0,56,30.12,10.0,NW,15.0,20.7,N/A,,Overcast,310,2013-05-31 14:53:00
9:53 AM,44.1,27.0,51,30.14,10.0,NW,17.3,23.0,N/A,,Overcast,310,2013-05-31 15:53:00
10:53 AM,45.0,28.0,52,30.16,10.0,WNW,12.7,-,N/A,,Overcast,300,2013-05-31 16:53:00
11:53 AM,46.9,28.0,48,30.17,10.0,NW,13.8,20.7,N/A,,Overcast,310,2013-05-31 17:53:00
12:53 PM,48.9,28.0,44,30.18,10.0,NW,12.7,20.7,N/A,,Overcast,310,2013-05-31 18:53:00
1:53 PM,51.1,30.0,44,30.18,10.0,NNW,12.7,20.7,N/A,,Overcast,330,2013-05-31 19:53:00
2:53 PM,52.0,28.9,41,30.18,10.0,NW,12.7,21.9,N/A,,Overcast,310,2013-05-31 20:53:00
3:53 PM,53.1,30.0,41,30.19,10.0,NNW,13.8,21.9,N/A,,Overcast,330,2013-05-31 21:53:00
4:53 PM,53.1,30.0,41,30.20,10.0,NNW,12.7,-,N/A,,Overcast,330,2013-05-31 22:53:00
5:53 PM,53.1,30.0,41,30.21,10.0,North,13.8,21.9,N/A,,Overcast,350,2013-05-31 23:53:00
6:53 PM,54.0,30.9,41,30.21,10.0,North,10.4,-,N/A,,Overcast,350,2013-06-01 00:53:00
7:53 PM,51.1,30.9,46,30.24,10.0,North,11.5,-,N/A,,Partly Cloudy,10,2013-06-01 01:53:00
8:53 PM,48.9,28.9,46,30.26,10.0,North,6.9,-,N/A,,Clear,360,2013-06-01 02:53:00
9:53 PM,46.9,30.9,54,30.28,10.0,North,8.1,-,N/A,,Clear,360,2013-06-01 03:53:00
10:53 PM,45.0,30.9,58,30.30,10.0,Calm,Calm,-,N/A,,Clear,0,2013-06-01 04:53:00
11:53 PM,39.0,32.0,76,30.32,10.0,SSW,5.8,-,N/A,,Clear,200,2013-06-01 05:53:00